#timestamp,LO_Frequency,Hit,StdDev 
1509390015.9,286046994.5,N
1509390035.7,286046993.0,N
1509390055.6,286046990.3,N
1509390075.4,286046991.3,N
1509390095.2,286046990.6,N
1509390115.1,286046992.8,N
1509390116.0,286046992.8,N
1509390135.8,286046994.2,N
1509390155.6,286046990.5,N
1509390175.5,286046988.0,N
1509390195.3,286046985.7,N
1509390215.1,286046989.1,N
1509390235.9,286046991.4,N
1509390255.7,286046990.7,N
1509390275.5,286046992.0,N
1509390295.4,286046994.6,N
1509390315.2,286046999.6,N
1509390335.0,286046997.5,N
1509390336.0,286046997.5,N
1509390355.8,286046995.3,N
1509390375.6,286046996.2,N
1509390395.5,286046995.7,N
1509390415.3,286046998.0,N
1509390435.1,286046999.4,N
1509390455.9,286047002.3,N
1509390475.7,286047005.7,N
1509390495.5,286047003.9,N
1509390515.4,286047001.9,N
1509390535.2,286047003.1,N
1509390555.0,286047007.9,N
1509390555.9,286047007.9,N
1509390575.8,286047010.1,N
1509390595.6,286047008.5,N
1509390615.4,286047004.8,N
1509390635.3,286047006.4,N
1509390655.1,286047006.9,N
1509390675.8,286047008.3,N
1509390695.7,286047007.6,N
1509390715.5,286047004.7,N
1509390735.3,286047007.2,N
1509390755.2,286047007.9,N
1509390775.0,286047008.3,N
1509390775.9,286047008.3,N
1509390795.7,286047007.7,N
1509390815.6,286047013.7,N
1509390835.4,286047014.5,N
1509390855.3,286047014.1,N
1509390875.1,286047016.3,Y
1509390876.0,286047016.3,P
1509390895.8,286047006.0,N
1509390915.7,286047002.5,N
1509390935.5,286047001.4,N
1509390955.3,286047002.6,N
1509390975.2,286047000.1,N
1509390995.9,286047001.8,N
1509391015.7,286047001.7,N
1509391035.6,286047004.1,N
1509391055.4,286047000.3,N
1509391075.2,286047001.9,N
1509391095.1,286047001.5,N
1509391096.0,286047001.5,N
1509391115.8,286047003.3,N
1509391135.6,286047000.0,N
1509391155.5,286046999.7,N
1509391175.3,286047001.9,N
1509391195.1,286046999.7,N
1509391215.9,286047000.1,N
1509391235.7,286046997.4,N
1509391255.5,286046993.6,N
1509391275.4,286046990.1,N
1509391295.2,286046994.8,N
1509391315.1,286046992.2,N
1509391316.0,286046992.2,N
1509391335.8,286046991.1,N
1509391355.6,286046990.0,N
1509391375.5,286046991.2,N
1509391395.3,286046992.1,N
1509391415.1,286046993.0,N
1509391435.9,286046989.7,N
1509391455.7,286046988.2,N
1509391475.5,286046989.3,N
1509391495.4,286046989.6,N
1509391515.2,286046986.6,N
1509391535.0,286046980.7,Y
1509391535.9,286046980.7,P
1509391555.8,286046987.5,N
1509391575.6,286046992.7,N
1509391595.4,286046991.1,N
1509391615.3,286046991.6,N
1509391635.1,286046993.1,N
1509391655.8,286046996.1,N
1509391675.7,286046996.5,N
1509391695.5,286046999.3,N
1509391715.4,286046998.5,N
1509391735.2,286046998.1,N
1509391755.0,286046998.2,N
1509391755.9,286046998.2,N
1509391775.8,286047000.7,N
1509391795.6,286046999.7,N
1509391815.4,286047002.5,N
1509391835.3,286047003.1,N
1509391855.1,286047001.4,N
1509391856.0,286047001.4,N
1509391875.8,286047000.2,N
1509391895.7,286047001.9,N
1509391915.5,286047001.3,N
1509391935.3,286047001.8,N
1509391955.2,286047003.4,N
1509391975.0,286047007.2,N
1509391975.9,286047007.2,N
1509391995.7,286047005.0,N
1509392015.6,286047003.0,N
1509392035.4,286047003.5,N
1509392055.2,286047003.4,N
1509392075.1,286047001.8,N
1509392076.0,286047001.8,N
1509392095.8,286047002.9,N
1509392115.7,286047007.6,N
1509392135.5,286047007.8,N
1509392155.3,286047008.2,N
1509392175.2,286047010.8,Y
1509392195.9,286047008.7,P
1509392215.7,286047008.5,N
1509392235.6,286047008.5,N
1509392255.4,286047004.5,N
1509392275.2,286047008.0,N
1509392295.1,286047009.1,Y
1509392296.0,286047009.1,P
1509392315.8,286047000.0,N
1509392335.7,286046997.8,N
1509392355.5,286046994.0,N
1509392375.3,286046993.6,N
1509392395.2,286046991.0,N
1509392415.9,286046989.7,N
1509392435.7,286046989.3,N
1509392455.6,286046993.2,N
1509392475.4,286046990.4,N
1509392495.2,286046990.2,N
1509392515.1,286046993.2,N
1509392516.0,286046993.2,N
1509392535.8,286046995.2,N
1509392555.6,286046997.7,N
1509392575.5,286046992.0,N
1509392595.3,286046990.3,N
1509392615.1,286046994.1,N
1509392635.9,286046995.6,N
1509392655.7,286046995.0,N
1509392675.5,286046997.2,N
1509392695.4,286046996.1,N
1509392715.2,286046991.9,N
1509392735.0,286046991.0,N
1509392736.0,286046991.0,N
1509392755.8,286046991.3,N
1509392775.6,286046988.5,N
1509392795.5,286046987.1,N
1509392815.3,286046989.6,N
1509392835.1,286046991.6,N
1509392855.9,286046994.3,N
1509392875.7,286046990.6,Y
1509392895.5,286046995.0,P
1509392915.4,286046995.7,P
1509392935.2,286046997.5,N
1509392955.0,286046993.6,Y
1509392956.0,286046993.6,P
1509392975.8,286046995.6,P
1509392995.6,286046996.5,P
1509393015.5,286046998.7,N
1509393035.3,286046996.6,N
1509393055.1,286046998.4,N
1509393075.9,286046998.1,N
1509393095.7,286046997.0,N
1509393115.5,286046995.6,N
1509393135.4,286046996.3,N
1509393155.2,286046993.5,Y
1509393175.0,286046996.2,P
1509393175.9,286046996.2,P
1509393195.8,286046997.9,P
1509393215.6,286046997.7,Y
1509393235.4,286046998.9,P
1509393255.3,286047002.4,N
1509393275.1,286047001.0,N
1509393295.8,286046999.5,N
1509393315.7,286046997.0,N
1509393335.5,286046995.6,N
1509393355.4,286046991.3,Y
1509393375.2,286046991.7,P
1509393395.0,286046992.3,N
1509393395.9,286046992.3,N
1509393415.8,286046991.0,Y
1509393435.6,286046994.0,P
1509393455.5,286046996.4,P
1509393475.3,286046996.2,P
1509393495.1,286046994.5,Y
1509393515.9,286046995.4,P
1509393535.7,286046993.3,P
1509393555.5,286046994.8,P
1509393575.4,286046993.1,Y
1509393595.2,286046999.4,P
